Overview Statistics Trail Chart Weather Telemetry Raw packets
 

This is the latest recevied weather packets stored in our database for station/object N5ATR. If no packets are shown the sender has not sent any weather packets the latest 10 day(s).

<< 71 72 73 74 75 76 77 >>
Time Temp. Humidity Pressure Rain* Wind** Luminosity Snow
1788182987 17.22° C 64% 1023.4 hPa 0 mm - 44 W/m² -
1788182682 17.22° C 65% 1023.5 hPa 0 mm - 34 W/m² -
1788182382 17.22° C 65% 1023.4 hPa 0 mm - 22 W/m² -
1788182077 17.22° C 65% 1023.4 hPa 0 mm - 17 W/m² -
1788181773 16.67° C 66% 1023.4 hPa 0 mm - 15 W/m² -
1788181468 16.67° C 67% 1023.6 hPa 0 mm - 11 W/m² -
1788181167 16.67° C 68% 1023.6 hPa 0 mm - 10 W/m² -
1788180867 16.67° C 68% 1023.6 hPa 0 mm - 7 W/m² -
1788180563 16.67° C 68% 1023.4 hPa 0 mm - 4 W/m² -
1788180259 16.67° C 68% 1023.3 hPa 0 mm - 2 W/m² -
1788179954 16.67° C 68% 1023.4 hPa 0 mm - 1 W/m² -
1788179653 16.67° C 67% 1023.6 hPa 0 mm - 1 W/m² -
1788179348 16.67° C 67% 1023.5 hPa 0 mm - 0 W/m² -
1788179043 16.67° C 66% 1023.1 hPa 0 mm - 0 W/m² -
1788178738 16.67° C 66% 1022.9 hPa 0 mm - 0 W/m² -
1788178435 16.67° C 67% 1023.1 hPa 0 mm - 0 W/m² -
1788178130 16.67° C 67% 1023.1 hPa 0 mm - 0 W/m² -
1788177847 16.67° C 66% 1023.1 hPa 0 mm - 0 W/m² -
1788177525 16.67° C 67% 1023.1 hPa 0 mm - 0 W/m² -
1788177222 16.67° C 67% 1023 hPa 0 mm - 0 W/m² -
1788176920 16.67° C 66% 1023 hPa 0 mm - 0 W/m² -
1788176619 17.22° C 65% 1023.1 hPa 0 mm - 0 W/m² -
1788176334 17.22° C 63% 1023.3 hPa 0 mm - 0 W/m² -
1788176010 17.78° C 61% 1023.1 hPa 0 mm - 0 W/m² -
1788175710 18.33° C 54% 1023.1 hPa 0 mm - 0 W/m² -

* Rain latest hour (hover to see other rain measurements)
** Current wind speed in m/s (hover to see current wind gust speed)